Weather History for Nuiqsut, AK

Change the Weather History Date:

Sunday, September 15, 2013

  Actual Average (PAKU) Record (PAKU)
Temperature  
Mean Temperature 30 °F -  
Max Temperature 32 °F 36 °F 64 °F (2006)
Min Temperature 28 °F 29 °F 22 °F (1985)
Degree Days  
Heating Degree Days 35    
Moisture  
Dew Point 29 °F    
Average Humidity 94    
Maximum Humidity 100    
Minimum Humidity 79    
Precipitation  
Precipitation 0.00 in - - ()
Sea Level Pressure  
Sea Level Pressure 30.22 in    
Wind  
Wind Speed 9 mph (North)    
Max Wind Speed 13 mph    
Max Gust Speed -    
Visibility 6 miles    
Events Snow    
Averages and records for this station are not official NWS values.
T = Trace of Precipitation, MM = Missing Value Source: NWS Daily Summary

Daily Weather History Graph

Daily Weather History Graph

Search for Another Location

Airport:

Trip Planner

Search our weather history database for the weather conditions in past years. The results will help you decide how hot, cold, wet, or windy it might be!

Date:

Astronomy

Sep. 15, 2013 Rise Set
Actual Time 7:17 AM AKDT 8:37 PM AKDT
Civil Twilight 6:13 AM AKDT 9:41 PM AKDT
Nautical Twilight 4:43 AM AKDT 11:09 PM AKDT
Astronomical Twilight 2:31 AM AKDT 1:26 AM AKDT
Moon 7:46 PM AKDT (9/15) 12:56 AM AKDT (9/15)
Length of Visible Light 15h 28m
Length of Day
13h 19m
Waxing Gibbous, 83% of the Moon is Illuminated
Sep 15
Waxing Gibbous
Sep 19
Full
Sep 26
Last Quarter
Oct 4
New
Oct 11
First Quarter

Hourly Weather History & Observations

Time (AKDT) Temp. Windchill Dew Point Humidity Pressure Visibility Wind Dir Wind Speed Gust Speed Precip Events Conditions
12:00 AM 32.0 °F 24.2 °F 32.0 °F 100% 30.10 in 1.2 mi West 9.2 mph - N/A   Overcast
12:16 AM 32.0 °F 25.6 °F 32.0 °F 100% 30.11 in 0.8 mi WNW 6.9 mph - 0.00 in   Overcast
12:20 AM 32.0 °F 24.8 °F 32.0 °F 100% 30.11 in 1.2 mi NW 8.1 mph - 0.00 in   Overcast
12:24 AM 32.0 °F 24.2 °F 32.0 °F 100% 30.11 in 3.0 mi NNW 9.2 mph - 0.00 in   Overcast
12:31 AM 32.0 °F 22.5 °F 32.0 °F 100% 30.12 in 1.8 mi North 12.7 mph - 0.00 in   Overcast
12:53 AM 32.0 °F 22.5 °F 32.0 °F 100% 30.14 in 6.0 mi North 12.7 mph - 0.00 in   Overcast
1:51 AM 30.2 °F 21.9 °F 30.2 °F 100% 30.17 in 2.5 mi North 9.2 mph - 0.00 in Snow Light Snow
1:52 AM 30.9 °F 22.2 °F 30.9 °F 100% 30.17 in 2.5 mi North 10.4 mph - 0.00 in Snow Light Snow
1:55 AM 30.2 °F 21.3 °F 30.2 °F 100% 30.17 in 3.0 mi North 10.4 mph - 0.00 in Snow Light Snow
2:20 AM 30.2 °F 22.6 °F 30.2 °F 100% 30.18 in 6.0 mi North 8.1 mph - 0.00 in Snow Light Snow
2:27 AM 30.2 °F 21.9 °F 30.2 °F 100% 30.19 in 8.0 mi North 9.2 mph - 0.00 in   Overcast
2:38 AM 30.2 °F 21.9 °F 30.2 °F 100% 30.19 in 5.0 mi North 9.2 mph - 0.00 in   Overcast
2:51 AM 30.2 °F 21.9 °F 30.2 °F 100% 30.20 in 10.0 mi North 9.2 mph - 0.00 in   Overcast
2:53 AM 30.9 °F 23.5 °F 28.9 °F 92% 30.20 in 10.0 mi North 8.1 mph - 0.00 in   Overcast
3:18 AM 30.2 °F 23.4 °F 30.2 °F 100% 30.21 in 4.0 mi North 6.9 mph - 0.00 in Snow Light Snow
3:35 AM 30.2 °F 23.4 °F 30.2 °F 100% 30.21 in 6.0 mi North 6.9 mph - 0.00 in Snow Light Snow
3:53 AM 30.0 °F 21.1 °F 28.9 °F 96% 30.22 in 8.0 mi North 10.4 mph - 0.00 in   Overcast
4:00 AM 30.2 °F 21.9 °F 28.4 °F 93% 30.22 in 5.0 mi North 9.2 mph - 0.00 in   Overcast
4:53 AM 30.0 °F 21.1 °F 28.9 °F 96% 30.25 in 4.0 mi North 10.4 mph - 0.00 in Snow Light Snow
5:53 AM 30.0 °F 21.7 °F 27.0 °F 88% 30.27 in 10.0 mi North 9.2 mph - 0.00 in   Overcast
6:53 AM 28.9 °F 21.1 °F 26.1 °F 89% 30.28 in 10.0 mi North 8.1 mph - 0.00 in   Overcast
7:51 AM 28.4 °F 20.4 °F 26.6 °F 93% 30.29 in 8.0 mi North 8.1 mph - 0.00 in   Overcast
7:53 AM 28.9 °F 19.8 °F 26.1 °F 89% 30.30 in 10.0 mi North 10.4 mph - 0.00 in   Overcast
8:24 AM 28.4 °F 21.2 °F 24.8 °F 86% 30.30 in 10.0 mi North 6.9 mph - 0.00 in   Overcast
8:53 AM 28.9 °F 22.8 °F 26.1 °F 89% 30.32 in 10.0 mi NE 5.8 mph - 0.00 in   Overcast
9:53 AM 28.9 °F 22.8 °F 27.0 °F 92% 30.32 in 2.0 mi North 5.8 mph - 0.00 in Snow Light Snow
10:08 AM 30.2 °F 23.4 °F 26.6 °F 86% 30.33 in 9.0 mi North 6.9 mph - 0.00 in   Overcast
10:53 AM 30.0 °F 23.2 °F 25.0 °F 82% 30.34 in 10.0 mi NNE 6.9 mph - 0.00 in   Overcast
11:53 AM 30.0 °F 24.1 °F 26.1 °F 85% 30.35 in 8.0 mi NNW 5.8 mph - 0.00 in   Overcast
12:53 PM 30.0 °F 24.1 °F 24.1 °F 79% 30.36 in 10.0 mi North 5.8 mph - 0.00 in   Overcast